Regional Weather Roundup
Issued by NWS Portland, ME

Home | Current Version | Previous Version | Text Only | Print | Product List | Glossary On
Versions: 1 2 3 4 5 6 7 8 9 10 11 12 13 14 15 16 17 18 19 20 21 22 23 24 25 26 27 28 29 30 31 32 33 34 35 36 37 38 39 40 41 42 43 44 45 46 47 48 49 50
000
ASUS41 KGYX 030110
RWRGYX
WEATHER ROUNDUP FOR MAINE AND NEW HAMPSHIRE
NATIONAL WEATHER SERVICE GRAY ME
900 PM EDT MON MAY 02 2016

MEZ002-005-006-010-012-015-018-020-021-024-026-027-029-030200-
MAINE

CITY           SKY/WX    TMP DP  RH WIND       PRES   REMARKS
PORTLAND       CLOUDY    44  42  93 N9        29.92S
SANFORD        CLOUDY    45  39  81 NW7       29.94R
BAR HARBOR     LGT RAIN  42  40  92 NE14      29.90F
WISCASSET      CLOUDY    45  43  93 VRB7      29.92R
ROCKLAND       LGT RAIN  44  42  93 NE14G21   29.88F FOG
FRYEBURG       CLOUDY    43  42  97 W5        29.95R
LEWISTONAUBURN CLOUDY    43  39  87 N9        29.92R
AUGUSTA        LGT RAIN  42  41  96 N10       29.92S
WATERVILLE     LGT RAIN  42  40  92 N12       29.90F
BANGOR         LGT RAIN  44  40  85 NE12      29.93F
GREENVILLE       N/A     36  35  96 E5        29.92F
MILLINOCKET    LGT RAIN  38  37  97 NE8       30.00F
HOULTON        LGT RAIN  41  37  86 CALM      30.00F
PRESQUE ISLE   LGT RAIN  41  39  93 SE3       30.03F
FRENCHVILLE    LGT RAIN  39  36  89 E3        30.02F
CARIBOU        LGT RAIN  42  38  85 NE3       30.01F
$$

NHZ002-005-008-009-011-012-014-030200-
NEW HAMPSHIRE

CITY           SKY/WX    TMP DP  RH WIND       PRES   REMARKS
ROCHESTER      CLOUDY    45  42  89 NW7       29.92S
NASHUA         CLOUDY    47  46  97 N7        29.94R
MANCHESTER     CLOUDY    47  44  90 NW7       29.92S
CONCORD        CLOUDY    46  42  86 N5        29.94S
LACONIA        CLOUDY    45  39  81 CALM      29.95S
PLYMOUTH       CLOUDY    45  44  97 CALM      29.93F
BERLIN         CLOUDY    42  39  89 CALM      29.94R
WHITEFIELD     CLOUDY    43  38  82 NE7       29.92S
JAFFREY        CLOUDY    45  43  93 NE3       29.93S FOG
KEENE          MOCLDY    46  45  93 CALM      29.94F
LEBANON        CLOUDY    46  44  93 CALM      29.94R
MT WASHINGTON  FRZ DRZL  27  27 100 W31         N/A  VSB 1/16WCI  10
$$

VTZ005-007-008-030200-
VERMONT

CITY           SKY/WX    TMP DP  RH WIND       PRES   REMARKS
ST JOHNSBURY     N/A     45  42  89 MISG      29.91S
MONTPELIER     CLOUDY    44  42  93 CALM      29.96F
BURLINGTON     CLOUDY    46  43  89 N6        29.95S
$$

MAZ007-012-024-CTZ003-RIZ002-NYZ038-NYZ072-030200-
SOUTHERN NEW ENGLAND AND NY

CITY           SKY/WX    TMP DP  RH WIND       PRES   REMARKS
BOSTON         CLOUDY    48  45  89 N8        29.94R FOG
WORCESTER      CLOUDY    48  46  93 NW7       29.93R
NANTUCKET      MOCLDY    51  48  89 W12       29.90R
PROVIDENCE     MOCLDY    55  49  80 NW6       29.94R
HARTFORD       MOCLDY    50  48  93 NE6       29.92R
ALBANY         DRIZZLE   52  48  86 W5        29.95R
NEW YORK CITY  MOCLDY    58  50  75 S6        29.91F
$$

ANZ081-ANZ082-ANZ150-NHZ014-MEZ023>029-030200-
COASTAL MARINE OBSERVATIONS

STATION/POSITION TIME  TEMP    WIND        PRES    WAVE
                       AIR SEA DIR/SP/G            HT/PER
                 (UTC) (F)     (DEG/KT/KT) (MB)    (FT/S)
MOUNT DESERT ROC 0100   42      20/ 25/ 27 1011.3F
MATINICUS ROCK   0000   42      40/ 24/ 26 1011.4F
ISLE OF SHOALS   0000   45     330/ 12/ 13 1012.5R
CASHES LEDGE BUO 0050   44 44   30/ 14/ 16 1009.6F   5/ 7
GEORGES BANK BUO 0050   51 49              1011.8F   6/ 8
$$

.............KEY..............
   WCI - WIND CHILL
   TC  - TEMPERATURE IN CELSIUS
   VSB - VISIBILITY IN MILES
   HX  - HEAT INDEX
   FAIR- INDICATES FEW OR NO CLOUDS BELOW 12,000 FT, WITH NO
         SIGNIFICANT WEATHER AND/OR OBSTRUCTIONS TO VISIBILITY.






USA.gov is the U.S. government's official web portal to all federal, state and local government web resources and services.